Wind_Speed
23 22 21 20 20 19 19 18 16 16 16 16 15 14 14 13 12 12 12 11 10 10 9 9 10 10 10 11 11 11 12 12 12 12 13 14 15 16 17 18 20 21 21 22
26 25 24 23 23 21 21 20 19 18 18 17 17 16 16 15 15 15 14 13 13 11 10 11 11 11 11 12 12 12 12 13 13 13 13 14 15 16 18 18 20 21 23 24
26 26 26 27 26 24 23 22 21 20 20 19 18 18 18 18 17 16 16 15 14 14 13 13 13 13 13 13 13 12 13 14 14 14 15 16 16 17 18 19 20 21 23 24
27 28 27 27 27 25 25 24 23 23 21 20 20 20 21 20 19 18 18 17 17 16 16 16 16 16 16 15 15 14 14 15 15 16 16 17 18 18 18 19 20 21 22 24
30 29 29 31 29 27 26 26 25 24 23 22 22 22 23 22 22 21 21 20 19 19 18 19 18 18 18 18 17 17 17 17 18 17 17 18 18 19 18 19 19 19 20 21
33 30 28 31 29 27 27 28 26 25 25 24 24 24 24 23 23 23 23 23 22 21 21 20 20 20 19 19 19 19 20 20 20 20 20 20 20 20 20 20 20 20 20 21
34 32 32 33 30 28 29 29 27 27 26 25 25 25 24 24 25 25 25 25 24 23 23 22 21 21 21 21 21 21 21 21 21 21 21 22 22 22 23 22 22 22 23 24
35 33 34 34 32 32 31 30 28 28 27 27 26 26 26 26 26 26 26 26 26 25 25 24 24 24 24 24 23 23 23 22 22 23 23 23 24 24 25 25 25 23 24 24
36 36 35 33 32 31 31 31 29 29 28 28 28 27 27 27 27 27 27 27 26 27 27 27 26 26 26 26 26 25 25 24 23 24 24 25 25 25 25 25 25 25 25 25
35 35 34 32 31 31 31 31 30 29 28 27 27 27 27 28 27 26 26 27 27 28 28 28 28 28 27 26 26 26 26 25 25 25 26 26 26 25 25 26 27 27 27 27
33 33 32 32 31 31 30 30 30 29 29 29 29 28 27 26 26 26 26 26 27 28 28 28 28 28 27 27 26 26 26 27 26 26 27 26 26 26 26 27 27 26 26 28
33 31 31 31 30 30 29 29 29 29 29 29 28 27 26 26 26 26 26 26 27 26 27 27 27 27 26 26 27 26 26 27 27 28 26 26 26 26 26 27 27 27 28 29
31 30 30 29 29 29 28 28 28 28 28 28 28 28 27 27 27 27 27 27 26 26 26 26 26 26 26 26 26 27 27 27 26 26 25 25 25 25 25 26 27 28 28 28
29 29 28 28 28 28 28 27 27 27 27 27 27 27 26 27 26 27 26 27 26 26 26 26 26 25 25 25 25 25 26 25 25 25 25 25 25 25 26 27 27 27 28 29
28 28 27 26 26 26 26 25 25 25 25 25 25 25 26 26 26 26 26 25 25 25 25 25 24 25 25 25 24 23 24 24 24 24 25 25 24 25 26 27 27 27 28 29
26 26 26 25 24 24 24 23 23 23 23 23 23 23 24 24 25 25 24 24 23 23 23 23 23 23 23 23 23 23 23 23 24 24 24 24 24 24 25 25 25 26 28 29
23 23 23 24 24 23 23 23 22 22 22 23 22 22 22 22 23 23 23 23 22 22 22 22 22 21 21 21 21 22 22 22 22 23 23 23 23 23 23 24 25 27 28 30
21 21 22 21 22 22 22 22 21 20 20 20 20 20 20 20 21 21 21 21 21 21 20 20 20 20 19 19 20 20 21 21 21 21 21 20 21 22 24 25 26 27 28 29
21 20 20 20 20 20 20 20 19 18 17 17 17 17 16 17 18 18 19 19 20 19 18 18 17 17 17 17 17 17 18 18 18 18 19 21 22 23 24 25 25 26 27 27
19 18 18 18 18 17 17 16 16 15 14 14 14 14 14 15 15 15 15 15 15 14 15 15 14 14 13 13 13 13 14 15 16 18 19 20 21 23 24 24 25 25 25 26
16 16 15 15 15 15 14 14 14 13 13 13 13 13 12 12 12 13 13 12 12 12 12 12 12 12 12 12 13 14 15 16 18 19 21 22 23 24 24 25 25 25 25 25
16 15 14 14 14 13 13 13 12 12 12 11 11 11 11 11 11 11 10 9 9 10 10 10 11 11 12 14 15 16 17 18 20 21 22 23 24 24 24 24 24 24 24 24
15 15 14 14 13 13 13 12 11 11 10 10 10 9 9 9 9 8 8 8 8 9 10 10 11 13 14 16 17 18 20 20 22 23 23 24 24 24 24 24 23 23 23 23
15 15 15 15 15 14 13 12 11 10 9 9 8 8 8 7 7 7 8 8 9 10 11 12 14 15 17 18 19 20 21 22 23 23 23 23 23 23 23 23 23 22 22 22
17 17 16 14 14 13 12 12 10 9 8 8 7 6 6 6 7 7 8 10 11 12 14 15 16 18 19 20 20 21 22 22 23 23 23 23 23 22 22 22 22 22 22 22
16 16 15 14 13 12 11 10 9 8 7 6 6 6 6 7 8 9 10 12 13 14 15 17 18 19 20 20 21 22 22 23 23 23 23 22 22 22 21 21 21 21 21 21
14 14 13 13 11 10 9 8 7 6 6 6 6 7 8 8 10 11 12 13 14 15 16 17 19 19 20 21 21 21 22 22 22 22 22 22 21 21 21 21 21 20 20 20
Wind_Direction
223 226 231 234 234 235 234 231 236 243 245 248 252 254 255 258 259 261 263 265 268 272 273 277 281 280 279 279 281 277 269 263 263 261 258 258 257 256 254 252 251 252 254 256
229 230 232 233 233 236 238 237 238 241 246 249 253 255 257 258 258 260 261 265 267 265 267 272 275 277 277 278 279 277 270 264 264 265 263 262 263 261 258 256 255 256 256 257
231 232 233 235 235 237 240 242 244 245 249 252 253 255 257 258 259 258 259 261 263 262 264 267 271 274 276 275 277 276 270 264 265 268 267 264 265 265 262 259 259 258 258 259
229 232 231 236 235 236 239 242 244 246 250 252 253 256 257 256 257 257 256 258 260 262 263 265 267 268 271 272 273 274 272 268 268 268 268 268 266 266 266 264 263 263 261 261
229 233 235 238 236 236 240 243 245 247 250 252 255 258 257 255 254 255 256 259 260 260 263 263 264 266 268 269 268 270 272 271 270 269 269 268 269 270 268 266 265 265 266 267
232 231 235 242 239 238 242 244 245 248 251 253 255 256 257 254 252 253 255 256 258 259 261 264 264 264 265 266 267 268 271 271 271 269 268 268 268 270 270 270 267 267 269 271
234 235 236 240 241 240 244 246 245 246 249 252 254 255 256 255 253 253 254 254 256 258 258 260 262 262 263 265 266 267 268 271 271 270 268 267 267 268 269 270 270 270 271 272
233 235 239 242 243 243 245 246 246 247 249 251 253 254 254 255 255 253 253 253 254 256 256 256 259 262 261 263 265 265 267 270 271 269 269 269 268 269 269 270 272 271 273 276
232 235 239 243 245 245 246 246 247 248 248 250 252 254 255 254 254 252 252 252 253 253 254 256 259 262 262 264 265 265 266 268 270 270 269 270 272 273 272 271 273 273 273 274
232 235 239 241 243 244 245 245 246 247 248 250 251 254 255 253 252 251 250 251 252 252 253 256 259 261 262 264 264 265 265 267 269 271 271 272 273 274 273 274 275 275 274 273
231 234 236 239 241 243 244 245 245 246 248 251 251 253 255 254 253 250 249 252 253 254 255 255 257 259 260 262 263 265 267 268 268 269 270 269 271 272 273 274 273 274 274 275
230 232 235 237 240 242 243 244 244 246 248 250 251 251 252 252 251 250 249 251 254 256 256 256 256 259 261 263 266 267 267 268 267 267 267 269 270 269 270 272 272 273 275 276
229 232 234 235 238 241 242 243 244 245 247 247 248 250 250 250 250 250 250 252 254 256 257 258 259 260 261 264 266 267 267 268 267 266 268 269 269 269 270 272 274 277 279 281
229 231 233 235 237 240 240 241 243 244 246 248 249 249 248 247 249 249 250 253 255 256 256 257 257 259 262 265 267 268 269 269 270 269 269 269 269 269 271 274 276 279 281 283
229 230 231 233 235 236 237 239 242 244 246 247 248 248 248 247 248 250 251 252 251 252 253 255 256 259 262 265 265 267 268 269 269 269 268 269 270 271 274 277 279 281 283 285
228 228 229 230 231 233 236 240 243 243 245 246 247 247 246 246 246 247 250 252 253 254 253 253 255 258 260 263 265 267 268 270 270 270 270 270 271 275 276 277 281 283 284 287
225 226 226 228 230 233 237 240 242 242 243 244 244 244 244 245 245 245 247 248 249 250 251 252 254 255 260 264 267 269 271 273 273 272 273 274 273 276 278 282 284 286 289 291
222 224 226 229 231 233 236 238 239 239 240 239 238 239 240 240 241 242 244 245 247 247 249 252 255 258 262 266 269 272 271 270 271 274 275 274 277 281 284 287 290 292 294 295
221 222 224 226 228 229 230 231 231 234 234 231 232 232 234 236 236 238 240 240 242 244 247 252 259 261 266 269 269 270 272 274 275 278 281 283 285 288 291 292 294 296 298 299
215 218 221 222 222 223 222 221 222 223 222 222 223 222 222 224 227 229 230 232 237 242 246 252 259 265 269 269 269 273 278 282 285 287 289 290 291 294 296 298 299 301 302 303
207 208 208 206 207 208 209 209 211 213 213 212 212 212 213 216 220 227 234 238 240 246 250 254 260 267 273 275 278 283 286 288 290 292 293 294 296 297 299 300 301 302 303 304
196 196 195 193 193 193 195 195 196 198 199 200 205 207 208 213 220 228 234 236 242 248 253 260 267 273 277 281 284 288 291 293 295 296 298 298 298 299 299 300 301 302 303 303
190 190 186 185 184 185 186 186 188 189 191 194 195 197 204 211 217 225 233 241 248 256 264 270 276 280 284 287 290 292 294 295 296 297 298 299 300 300 301 301 301 301 302 302
182 181 180 178 177 176 178 179 181 185 188 187 193 200 206 213 223 232 243 251 261 269 275 280 285 288 291 292 293 294 295 297 298 299 300 301 301 301 300 300 299 299 300 300
176 175 173 175 175 174 174 177 181 184 186 190 198 211 225 234 242 250 259 267 274 279 283 286 289 291 294 295 296 297 297 298 300 301 301 300 299 298 297 297 297 298 298 299
166 168 170 171 168 168 170 174 180 188 196 205 218 233 245 255 262 269 274 279 283 287 288 290 292 294 295 296 296 297 298 299 299 299 298 297 296 296 295 295 296 296 296 298
159 161 164 165 165 169 175 181 190 202 217 232 245 254 262 270 278 283 285 288 291 293 294 294 295 296 297 298 299 299 300 300 300 299 298 297 296 294 293 293 293 294 295 296
Height
5816 5819 5821 5823 5826 5828 5831 5834 5838 5839 5839 5840 5840 5840 5840 5841 5841 5841 5841 5841 5841 5841 5841 5841 5841 5841 5840 5840 5840 5839 5839 5839 5839 5839 5840 5840 5840 5840 5840 5841 5842 5843 5843 5844
5810 5813 5815 5818 5821 5823 5826 5828 5831 5833 5834 5834 5835 5836 5836 5837 5837 5837 5838 5838 5838 5838 5838 5838 5838 5838 5838 5837 5837 5837 5836 5836 5837 5837 5837 5837 5837 5837 5837 5837 5837 5838 5838 5839
5805 5807 5809 5812 5815 5818 5820 5823 5825 5828 5829 5829 5830 5831 5831 5832 5832 5833 5833 5834 5834 5835 5835 5835 5835 5835 5835 5834 5834 5834 5833 5833 5833 5834 5833 5833 5833 5833 5833 5832 5832 5832 5832 5833
5798 5801 5804 5808 5809 5812 5814 5816 5819 5820 5822 5823 5824 5825 5825 5826 5827 5828 5828 5829 5830 5830 5831 5831 5831 5831 5831 5831 5830 5830 5830 5830 5830 5830 5829 5829 5829 5828 5828 5828 5827 5827 5827 5827
5791 5794 5797 5799 5802 5805 5808 5810 5812 5814 5815 5817 5818 5818 5819 5820 5821 5822 5823 5824 5824 5825 5826 5826 5826 5826 5826 5826 5826 5826 5826 5825 5825 5825 5825 5825 5824 5824 5823 5823 5822 5822 5822 5822
5782 5787 5790 5792 5795 5798 5802 5803 5805 5807 5808 5810 5811 5812 5813 5813 5814 5816 5817 5818 5818 5819 5820 5820 5821 5821 5821 5821 5821 5821 5821 5820 5820 5820 5820 5819 5819 5819 5819 5818 5818 5817 5817 5816
5773 5778 5782 5783 5787 5791 5795 5796 5798 5799 5801 5802 5803 5805 5806 5806 5807 5809 5810 5811 5812 5813 5814 5814 5815 5815 5815 5815 5815 5816 5815 5815 5815 5814 5814 5814 5814 5813 5813 5813 5812 5811 5811 5810
5765 5770 5774 5775 5779 5783 5785 5787 5789 5791 5793 5794 5796 5797 5798 5799 5800 5801 5803 5804 5805 5806 5807 5808 5808 5809 5809 5809 5810 5810 5809 5809 5809 5808 5808 5808 5808 5807 5807 5806 5806 5805 5805 5804
5757 5761 5763 5767 5770 5773 5776 5778 5780 5783 5785 5787 5788 5789 5791 5792 5793 5794 5795 5796 5798 5799 5800 5800 5801 5802 5802 5802 5803 5803 5803 5803 5802 5802 5802 5801 5801 5800 5800 5799 5799 5798 5797 5797
5748 5751 5755 5758 5761 5764 5767 5770 5772 5774 5777 5778 5780 5781 5783 5784 5785 5786 5788 5789 5790 5791 5792 5793 5794 5794 5795 5795 5795 5795 5796 5796 5796 5795 5795 5794 5794 5794 5793 5792 5792 5791 5790 5789
5739 5743 5747 5750 5753 5756 5759 5762 5764 5766 5768 5770 5772 5774 5775 5776 5777 5778 5780 5781 5783 5784 5785 5785 5786 5787 5787 5788 5788 5788 5788 5788 5788 5788 5788 5787 5787 5787 5786 5786 5785 5784 5783 5782
5731 5735 5739 5743 5745 5748 5751 5754 5756 5758 5760 5762 5764 5766 5767 5768 5770 5771 5773 5774 5775 5776 5777 5778 5779 5779 5780 5781 5781 5781 5781 5781 5781 5780 5780 5780 5780 5780 5779 5779 5778 5777 5775 5774
5724 5728 5731 5735 5738 5741 5744 5746 5748 5751 5752 5754 5756 5758 5759 5761 5762 5764 5765 5766 5768 5769 5770 5771 5772 5772 5773 5773 5774 5774 5774 5774 5773 5773 5773 5773 5773 5772 5772 5771 5770 5769 5767 5766
5717 5721 5725 5728 5731 5734 5736 5739 5741 5743 5745 5746 5748 5750 5751 5753 5755 5756 5758 5759 5761 5762 5763 5764 5765 5765 5766 5766 5767 5767 5767 5767 5767 5766 5766 5766 5766 5765 5764 5763 5762 5760 5759 5757
5711 5714 5718 5721 5724 5727 5729 5732 5734 5736 5737 5739 5741 5742 5744 5746 5748 5749 5751 5752 5754 5755 5756 5757 5758 5759 5759 5760 5760 5760 5760 5760 5760 5760 5759 5759 5758 5757 5756 5755 5753 5752 5750 5749
5704 5708 5711 5715 5718 5720 5723 5725 5727 5729 5731 5732 5734 5735 5737 5739 5741 5743 5745 5746 5747 5748 5749 5750 5752 5752 5753 5753 5753 5754 5754 5754 5753 5753 5752 5752 5751 5750 5748 5747 5746 5744 5742 5740
5699 5702 5705 5709 5711 5714 5717 5719 5721 5723 5724 5726 5728 5729 5731 5733 5735 5737 5739 5740 5741 5742 5743 5745 5746 5746 5746 5747 5747 5747 5747 5747 5746 5746 5745 5744 5744 5742 5741 5740 5738 5736 5734 5732
5694 5697 5700 5703 5705 5708 5711 5713 5715 5717 5719 5720 5722 5724 5725 5727 5729 5731 5733 5734 5736 5737 5738 5739 5740 5740 5741 5741 5741 5741 5741 5740 5740 5740 5739 5738 5737 5736 5735 5733 5731 5728 5726 5723
5689 5692 5695 5697 5700 5702 5705 5707 5710 5712 5714 5715 5717 5719 5720 5722 5724 5726 5727 5729 5731 5732 5733 5734 5734 5735 5735 5735 5735 5735 5735 5734 5734 5734 5733 5732 5731 5729 5727 5725 5723 5720 5718 5715
5685 5688 5690 5693 5696 5698 5701 5703 5705 5707 5710 5711 5713 5715 5716 5718 5720 5721 5723 5725 5726 5727 5728 5729 5730 5730 5730 5730 5730 5730 5730 5730 5729 5728 5727 5726 5724 5722 5720 5718 5715 5713 5710 5707
5681 5684 5687 5690 5692 5695 5697 5700 5702 5704 5706 5708 5710 5712 5714 5716 5717 5719 5720 5722 5723 5724 5725 5725 5726 5726 5726 5727 5726 5726 5725 5725 5724 5722 5721 5719 5717 5715 5713 5710 5707 5705 5702 5700
5679 5682 5685 5687 5690 5693 5695 5698 5700 5702 5704 5706 5708 5710 5712 5713 5715 5716 5718 5719 5720 5721 5721 5722 5722 5723 5723 5723 5722 5721 5720 5719 5718 5716 5714 5712 5710 5707 5705 5703 5700 5698 5695 5692
5678 5681 5684 5686 5689 5692 5694 5697 5699 5701 5703 5705 5707 5708 5710 5711 5713 5714 5715 5716 5717 5718 5718 5719 5719 5719 5718 5718 5717 5715 5714 5713 5711 5709 5707 5705 5702 5700 5698 5695 5693 5690 5688 5685
5677 5680 5683 5686 5689 5692 5694 5696 5699 5701 5703 5704 5706 5707 5709 5710 5711 5712 5713 5713 5714 5714 5715 5714 5714 5714 5713 5712 5711 5709 5708 5706 5704 5702 5700 5697 5695 5693 5690 5688 5685 5683 5681 5678
5677 5680 5683 5686 5689 5692 5694 5696 5698 5700 5702 5703 5705 5706 5707 5708 5709 5709 5710 5710 5710 5710 5710 5710 5709 5708 5707 5706 5704 5702 5700 5699 5696 5694 5692 5690 5687 5685 5683 5681 5679 5676 5674 5672
5678 5681 5684 5687 5689 5692 5694 5696 5698 5700 5701 5703 5704 5705 5705 5706 5706 5706 5706 5706 5706 5706 5705 5704 5703 5702 5700 5699 5697 5695 5693 5691 5689 5687 5684 5682 5680 5678 5676 5674 5672 5670 5667 5665
5680 5683 5685 5688 5690 5692 5694 5696 5698 5699 5700 5701 5702 5702 5703 5703 5703 5703 5702 5702 5701 5700 5699 5698 5697 5695 5694 5692 5690 5688 5686 5683 5681 5679 5677 5675 5673 5671 5669 5667 5665 5663 5661 5659